Location: Keewatin
(47.4004°N, 93.0827°W)
Time: 06:07:07
(UTC+00:00)

Envisat - Pass Details

Date: 10 December 2019
Orbit: 764 x 766 km, 98.1° (Epoch: 20 January)

Event Time Altitude Azimuth Distance (km) Brightness Sun altitude
Rises 00:53:59 0° 192° (SSW) 3,220 6.5 -24.8°
Reaches altitude 10° 00:56:31 10° 203° (SSW) 2,299 5.8 -25.2°
Maximum altitude 01:01:00 31° 265° (W) 1,318 4.8 -25.9°
Drops below altitude 10° 01:05:32 10° 328° (NNW) 2,315 5.8 -26.7°
Sets 01:08:06 0° 338° (NNW) 3,246 6.5 -27.1°
